VK4VP-5 Weather Reports


time (UTC)temp
C
wind
direction
speed
KPH
gust
KPH
rain 1hr
cm
rain 24hr
cm
rain mn
cm
humidity
%
barometer
mb
20260510010434 23 232 1.6 17.7 0.00 0.00 0.00 86 1020.6
20260510005934 23 235 1.6 17.7 0.00 0.00 0.00 86 1020.9
20260510005434 23 0 0.0 6.4 0.00 0.00 0.00 86 1020.9
20260510004935 23 0 0.0 4.8 0.00 0.00 0.00 84 1020.9
20260510004434 23 0 0.0 8.0 0.00 0.00 0.00 82 1021.1
20260510003934 23 166 1.6 8.0 0.00 0.00 0.00 81 1021.1
20260510003434 23 152 1.6 6.4 0.00 0.00 0.00 81 1021.1
20260510002934 23 158 1.6 6.4 0.00 0.00 0.00 81 1021.0
20260510002434 23 163 1.6 8.0 0.00 0.00 0.00 81 1021.0
20260510001934 23 193 1.6 8.0 0.00 0.00 0.00 82 1021.0
20260510001435 23 238 1.6 8.0 0.00 0.00 0.00 82 1021.2
20260510000935 23 216 1.6 6.4 0.00 0.00 0.00 80 1021.2
20260510000434 23 209 1.6 8.0 0.00 0.00 0.00 80 1021.2
20260509235935 23 207 1.6 8.0 0.00 0.00 0.00 81 1021.2
20260509235434 23 0 0.0 8.0 0.00 0.00 0.00 80 1021.2
20260509234934 23 166 1.6 8.0 0.00 0.00 0.00 81 1021.2
20260509234435 23 163 3.2 8.0 0.00 0.00 0.00 80 1021.3
20260509233934 23 183 1.6 12.9 0.00 0.00 0.00 82 1021.3
20260509233435 23 200 1.6 12.9 0.00 0.00 0.00 82 1021.3
20260509232934 22 205 1.6 9.7 0.00 0.00 0.00 83 1021.1
20260509232435 22 217 1.6 9.7 0.00 0.00 0.00 83 1021.1
20260509231933 22 206 1.6 6.4 0.00 0.00 0.00 83 1021.1
20260509231434 22 0 0.0 8.0 0.00 0.00 0.00 84 1020.8
20260509230937 22 0 0.0 8.0 0.00 0.00 0.00 85 1020.8
20260509230434 22 0 0.0 6.4 0.00 0.00 0.00 85 1020.8
20260509225934 21 179 1.6 4.8 0.00 0.00 0.00 86 1020.6
20260509225435 21 193 1.6 8.0 0.00 0.00 0.00 86 1020.6
20260509224934 21 203 1.6 8.0 0.00 0.00 0.00 87 1020.6
20260509224434 21 0 0.0 8.0 0.00 0.00 0.00 88 1020.6
20260509223933 21 225 1.6 9.7 0.00 0.00 0.00 88 1020.6
20260509223435 20 0 0.0 9.7 0.00 0.00 0.00 90 1020.6
20260509222935 20 240 1.6 11.3 0.00 0.00 0.00 91 1020.5
20260509222435 20 242 1.6 11.3 0.00 0.00 0.00 92 1020.5
20260509221935 20 0 0.0 6.4 0.00 0.00 0.00 93 1020.5
20260509221435 19 0 0.0 9.7 0.00 0.00 0.00 94 1020.3
20260509220934 18 242 1.6 11.3 0.00 0.00 0.00 94 1020.3
20260509220434 18 0 0.0 11.3 0.00 0.00 0.00 95 1020.3
20260509215933 18 0 0.0 4.8 0.00 0.00 0.00 95 1020.2
20260509215435 17 0 0.0 4.8 0.00 0.00 0.00 95 1020.2
20260509214934 17 0 0.0 3.2 0.00 0.00 0.00 95 1020.2
20260509214435 17 0 0.0 3.2 0.00 0.00 0.00 96 1019.9
20260509213935 17 0 0.0 4.8 0.00 0.00 0.00 96 1019.9
20260509213433 17 0 0.0 4.8 0.00 0.00 0.00 96 1019.9
20260509212933 16 0 0.0 3.2 0.00 0.00 0.00 96 1019.8
20260509212435 16 0 0.0 3.2 0.00 0.00 0.00 96 1019.8
20260509211935 16 0 0.0 4.8 0.00 0.00 0.00 96 1019.8
20260509211434 16 0 0.0 6.4 0.00 0.00 0.00 96 1019.4
20260509210935 16 0 0.0 6.4 0.00 0.00 0.00 96 1019.4
20260509210435 16 0 0.0 0.0 0.00 0.00 0.00 96 1019.4
20260509205934 16 0 0.0 1.6 0.00 0.00 0.00 96 1019.4
20260509205434 16 0 0.0 1.6 0.00 0.00 0.00 95 1019.4
20260509204934 16 0 0.0 3.2 0.00 0.00 0.00 95 1019.4
20260509204434 16 0 0.0 3.2 0.00 0.00 0.00 95 1019.3
20260509203934 16 0 0.0 3.2 0.00 0.00 0.00 95 1019.3
20260509203435 16 0 0.0 0.0 0.00 0.00 0.00 96 1019.3
20260509202934 16 0 0.0 4.8 0.00 0.00 0.00 96 1019.1
20260509202435 16 0 0.0 4.8 0.00 0.00 0.00 96 1019.1
20260509201935 16 0 0.0 0.0 0.00 0.00 0.00 96 1019.1
20260509201434 16 0 0.0 0.0 0.00 0.00 0.00 96 1019.0
20260509200934 16 0 0.0 0.0 0.00 0.00 0.00 96 1019.0
20260509200435 16 0 0.0 0.0 0.00 0.00 0.00 96 1019.0
20260509195935 16 0 0.0 0.0 0.00 0.00 0.00 96 1018.8
20260509195434 16 0 0.0 0.0 0.00 0.00 0.00 96 1018.8
20260509194934 16 0 0.0 0.0 0.00 0.00 0.00 96 1018.8
20260509194433 15 0 0.0 0.0 0.00 0.00 0.00 96 1018.7
20260509193934 15 0 0.0 0.0 0.00 0.00 0.00 96 1018.7
20260509193434 15 0 0.0 0.0 0.00 0.00 0.00 96 1018.7
20260509192935 15 0 0.0 0.0 0.00 0.00 0.00 96 1018.7
20260509192434 15 0 0.0 0.0 0.00 0.00 0.00 96 1018.7
20260509191935 15 0 0.0 0.0 0.00 0.00 0.00 96 1018.7
20260509191433 15 0 0.0 0.0 0.00 0.00 0.00 97 1018.3
20260509190934 15 0 0.0 0.0 0.00 0.00 0.00 97 1018.3
20260509190433 15 0 0.0 0.0 0.00 0.00 0.00 97 1018.3
20260509185934 15 0 0.0 3.2 0.00 0.00 0.00 97 1018.4
20260509185434 15 0 0.0 8.0 0.00 0.00 0.00 97 1018.4
20260509184933 15 254 1.6 11.3 0.00 0.00 0.00 97 1018.4
20260509184433 14 249 1.6 11.3 0.00 0.00 0.00 96 1018.2
20260509183934 14 0 0.0 3.2 0.00 0.00 0.00 96 1018.2
20260509183435 14 0 0.0 3.2 0.00 0.00 0.00 96 1018.2
20260509182935 14 0 0.0 0.0 0.00 0.00 0.00 96 1018.1
20260509182434 14 0 0.0 0.0 0.00 0.00 0.00 96 1018.1
20260509181934 14 0 0.0 0.0 0.00 0.00 0.00 96 1018.1
20260509181434 14 0 0.0 0.0 0.00 0.00 0.00 95 1018.0
20260509180935 13 0 0.0 0.0 0.00 0.00 0.00 95 1018.0
20260509180435 13 0 0.0 0.0 0.00 0.00 0.00 95 1018.0
20260509175935 13 0 0.0 0.0 0.00 0.00 0.00 95 1017.9
20260509175434 13 0 0.0 0.0 0.00 0.00 0.00 95 1017.9
20260509174934 13 0 0.0 0.0 0.00 0.00 0.00 95 1017.9
20260509174435 13 0 0.0 0.0 0.00 0.00 0.00 95 1018.0
20260509173933 14 0 0.0 0.0 0.00 0.00 0.00 95 1018.0
20260509173434 13 0 0.0 0.0 0.00 0.00 0.00 95 1018.0
20260509172935 14 0 0.0 0.0 0.00 0.00 0.00 95 1018.0
20260509172434 14 0 0.0 0.0 0.00 0.00 0.00 95 1018.0
20260509171934 14 0 0.0 0.0 0.00 0.00 0.00 95 1018.0
20260509171434 14 0 0.0 0.0 0.00 0.00 0.00 95 1018.1
20260509170934 14 0 0.0 0.0 0.00 0.00 0.00 95 1018.1
20260509170433 14 0 0.0 0.0 0.00 0.00 0.00 95 1018.1
20260509165935 13 0 0.0 0.0 0.00 0.00 0.00 95 1018.1
20260509165435 13 0 0.0 0.0 0.00 0.00 0.00 95 1018.1
20260509164934 13 0 0.0 0.0 0.00 0.00 0.00 95 1018.1
20260509164433 14 0 0.0 0.0 0.00 0.00 0.00 95 1018.1
20260509163934 14 0 0.0 0.0 0.00 0.00 0.00 95 1018.1
20260509163434 14 0 0.0 0.0 0.00 0.00 0.00 95 1018.1
20260509162934 14 0 0.0 0.0 0.00 0.00 0.00 95 1018.1
20260509162433 14 0 0.0 0.0 0.00 0.00 0.00 95 1018.1
20260509161936 14 0 0.0 0.0 0.00 0.00 0.00 94 1018.1
20260509161435 14 0 0.0 0.0 0.00 0.00 0.00 94 1018.2
20260509160934 14 0 0.0 0.0 0.00 0.00 0.00 94 1018.2
20260509160434 14 0 0.0 0.0 0.00 0.00 0.00 94 1018.2
20260509155933 14 0 0.0 0.0 0.00 0.00 0.00 94 1018.1
20260509155435 14 0 0.0 0.0 0.00 0.00 0.00 94 1018.1
20260509154934 14 0 0.0 0.0 0.00 0.00 0.00 94 1018.1
20260509154434 14 0 0.0 0.0 0.00 0.00 0.00 94 1018.2
20260509153934 14 0 0.0 0.0 0.00 0.00 0.00 94 1018.2
20260509153435 14 0 0.0 0.0 0.00 0.00 0.00 94 1018.2
20260509152934 14 0 0.0 0.0 0.00 0.00 0.00 94 1018.2
20260509152434 14 0 0.0 0.0 0.00 0.00 0.00 94 1018.2
20260509151934 14 0 0.0 0.0 0.00 0.00 0.00 94 1018.2
20260509151435 14 0 0.0 0.0 0.00 0.00 0.00 94 1018.3
20260509150934 14 0 0.0 0.0 0.00 0.00 0.00 94 1018.3
20260509150434 14 0 0.0 0.0 0.00 0.00 0.00 93 1018.3
20260509145934 14 0 0.0 0.0 0.00 0.00 0.00 93 1018.5
20260509145433 14 0 0.0 0.0 0.00 0.00 0.00 93 1018.5
20260509144934 14 0 0.0 0.0 0.00 0.00 0.00 93 1018.5
20260509144434 14 0 0.0 0.0 0.00 0.00 0.00 93 1018.6
20260509143933 14 0 0.0 0.0 0.00 0.00 0.00 93 1018.6
20260509143435 14 0 0.0 0.0 0.00 0.00 0.00 93 1018.6
20260509142936 14 0 0.0 0.0 0.00 0.00 0.00 93 1018.7
20260509142436 14 0 0.0 0.0 0.00 0.00 0.00 93 1018.7
20260509141935 14 0 0.0 0.0 0.00 0.00 0.00 93 1018.7
20260509141434 14 0 0.0 0.0 0.00 0.00 0.00 93 1018.8
20260509140934 14 0 0.0 0.0 0.00 0.00 0.00 93 1018.8
20260509140433 14 0 0.0 0.0 0.00 0.00 0.00 93 1018.8
20260509135933 14 0 0.0 0.0 0.00 0.00 0.00 93 1018.8
20260509135434 14 0 0.0 0.0 0.00 0.00 0.00 92 1018.8
20260509134933 14 0 0.0 0.0 0.00 0.00 0.00 92 1018.8
20260509134434 15 0 0.0 0.0 0.00 0.00 0.00 92 1018.8
20260509133933 15 0 0.0 0.0 0.00 0.00 0.00 92 1018.8
20260509133435 15 0 0.0 0.0 0.00 0.00 0.00 92 1018.8
20260509132935 15 0 0.0 0.0 0.00 0.00 0.00 92 1019.0
20260509132434 15 0 0.0 0.0 0.00 0.00 0.00 92 1019.0
20260509131935 15 0 0.0 0.0 0.00 0.00 0.00 92 1019.0
20260509131435 15 0 0.0 0.0 0.00 0.00 0.00 92 1019.1
20260509130935 15 0 0.0 0.0 0.00 0.00 0.00 92 1019.1
20260509130434 15 0 0.0 0.0 0.00 0.00 0.00 92 1019.1
20260509125934 15 0 0.0 0.0 0.00 0.00 0.00 92 1019.1
20260509125435 15 0 0.0 0.0 0.00 0.00 0.00 92 1019.1
20260509124934 15 0 0.0 0.0 0.00 0.00 0.00 91 1019.1
20260509124433 15 0 0.0 0.0 0.00 0.00 0.00 91 1019.1
20260509123934 15 0 0.0 0.0 0.00 0.00 0.00 91 1019.1
20260509123434 15 0 0.0 0.0 0.00 0.00 0.00 91 1019.1
20260509122933 15 0 0.0 0.0 0.00 0.00 0.00 91 1019.1
20260509122434 15 0 0.0 0.0 0.00 0.00 0.00 91 1019.1
20260509121934 15 0 0.0 0.0 0.00 0.00 0.00 91 1019.1
20260509121434 15 0 0.0 0.0 0.00 0.00 0.00 91 1019.1
20260509120935 15 0 0.0 0.0 0.00 0.00 0.00 91 1019.1
20260509120434 15 0 0.0 0.0 0.00 0.00 0.00 91 1019.1
20260509115933 15 0 0.0 0.0 0.00 0.00 0.00 91 1019.1
20260509115434 15 0 0.0 0.0 0.00 0.00 0.00 91 1019.1
20260509114934 15 0 0.0 0.0 0.00 0.00 0.00 91 1019.1
20260509114434 15 0 0.0 0.0 0.00 0.00 0.00 91 1019.1
20260509113935 15 0 0.0 0.0 0.00 0.00 0.00 90 1019.1
20260509113435 15 0 0.0 0.0 0.00 0.00 0.00 90 1019.1
20260509112934 15 0 0.0 0.0 0.00 0.00 0.00 90 1019.1
20260509112434 15 0 0.0 0.0 0.00 0.00 0.00 90 1019.1
20260509111935 15 0 0.0 0.0 0.00 0.00 0.00 90 1019.1
20260509111434 15 0 0.0 0.0 0.00 0.00 0.00 90 1019.2
20260509110933 15 0 0.0 0.0 0.00 0.00 0.00 89 1019.2
20260509110434 15 0 0.0 0.0 0.00 0.00 0.00 89 1019.2
20260509105934 16 0 0.0 0.0 0.00 0.00 0.00 89 1019.1
20260509105435 16 0 0.0 0.0 0.00 0.00 0.00 89 1019.1
20260509104934 16 0 0.0 0.0 0.00 0.00 0.00 89 1019.1
20260509104435 16 0 0.0 0.0 0.00 0.00 0.00 89 1019.1
20260509103934 16 0 0.0 0.0 0.00 0.00 0.00 89 1019.1
20260509103434 16 0 0.0 0.0 0.00 0.00 0.00 88 1019.1
20260509102933 16 0 0.0 0.0 0.00 0.00 0.00 88 1019.1
20260509102434 16 0 0.0 0.0 0.00 0.00 0.00 88 1019.1
20260509101933 16 0 0.0 0.0 0.00 0.00 0.00 87 1019.1
20260509101433 16 0 0.0 0.0 0.00 0.00 0.00 87 1019.0
20260509100935 16 0 0.0 0.0 0.00 0.00 0.00 87 1019.0
20260509100434 16 0 0.0 0.0 0.00 0.00 0.00 87 1019.0
20260509095933 16 0 0.0 0.0 0.00 0.00 0.00 86 1018.9
20260509095434 16 0 0.0 0.0 0.00 0.00 0.00 86 1018.9
20260509094933 16 0 0.0 0.0 0.00 0.00 0.00 86 1018.9
20260509094434 16 0 0.0 0.0 0.00 0.00 0.00 85 1018.8
20260509093934 16 0 0.0 0.0 0.00 0.00 0.00 85 1018.8
20260509093433 16 0 0.0 0.0 0.00 0.00 0.00 84 1018.8
20260509092934 17 0 0.0 0.0 0.00 0.00 0.00 84 1018.6
20260509092434 17 0 0.0 0.0 0.00 0.00 0.00 84 1018.6
20260509091934 17 0 0.0 0.0 0.00 0.00 0.00 83 1018.6
20260509091433 17 0 0.0 0.0 0.00 0.00 0.00 83 1018.5
20260509090935 17 0 0.0 0.0 0.00 0.00 0.00 83 1018.5
20260509090434 17 0 0.0 0.0 0.00 0.00 0.00 82 1018.5
20260509085933 17 0 0.0 0.0 0.00 0.00 0.00 82 1018.3
20260509085434 17 0 0.0 0.0 0.00 0.00 0.00 82 1018.3
20260509084934 18 0 0.0 0.0 0.00 0.00 0.00 81 1018.3
20260509084433 18 0 0.0 0.0 0.00 0.00 0.00 81 1018.2
20260509083934 18 0 0.0 0.0 0.00 0.00 0.00 80 1018.2
20260509083433 18 0 0.0 0.0 0.00 0.00 0.00 80 1018.2
20260509082933 18 0 0.0 0.0 0.00 0.00 0.00 79 1018.1
20260509082434 18 0 0.0 0.0 0.00 0.00 0.00 79 1018.1
20260509081933 18 0 0.0 0.0 0.00 0.00 0.00 78 1018.1
20260509081434 19 0 0.0 0.0 0.00 0.00 0.00 77 1017.9
20260509080935 19 0 0.0 0.0 0.00 0.00 0.00 77 1017.9
20260509080434 20 0 0.0 0.0 0.00 0.00 0.00 76 1017.9
20260509075935 20 0 0.0 0.0 0.00 0.00 0.00 76 1017.7
20260509075433 20 0 0.0 0.0 0.00 0.00 0.00 75 1017.7
20260509074936 20 0 0.0 0.0 0.00 0.00 0.00 75 1017.7
20260509074434 21 0 0.0 0.0 0.00 0.00 0.00 74 1017.6
20260509073933 21 0 0.0 0.0 0.00 0.00 0.00 74 1017.6
20260509073434 21 0 0.0 0.0 0.00 0.00 0.00 73 1017.6
20260509072933 21 0 0.0 0.0 0.00 0.00 0.00 72 1017.5
20260509072434 22 0 0.0 0.0 0.00 0.00 0.00 72 1017.5
20260509071934 22 0 0.0 0.0 0.00 0.00 0.00 71 1017.5
20260509071437 22 0 0.0 0.0 0.00 0.00 0.00 71 1017.3
20260509070934 22 0 0.0 0.0 0.00 0.00 0.00 70 1017.3
20260509070433 23 0 0.0 0.0 0.00 0.00 0.00 70 1017.3
20260509065934 23 0 0.0 0.0 0.00 0.00 0.00 69 1017.1
20260509065435 23 0 0.0 0.0 0.00 0.00 0.00 69 1017.1
20260509064933 23 0 0.0 0.0 0.00 0.00 0.00 69 1017.1
20260509064434 23 0 0.0 1.6 0.00 0.00 0.00 69 1017.0
20260509063934 23 0 0.0 1.6 0.00 0.00 0.00 69 1017.0
20260509063433 23 0 0.0 4.8 0.00 0.00 0.00 69 1017.0
20260509062933 23 0 0.0 4.8 0.00 0.00 0.00 68 1016.9
20260509062433 23 0 0.0 3.2 0.00 0.00 0.00 68 1016.9
20260509061933 23 0 0.0 3.2 0.00 0.00 0.00 68 1016.9
20260509061434 23 0 0.0 3.2 0.00 0.00 0.00 68 1016.7
20260509060934 23 132 1.6 3.2 0.00 0.00 0.00 68 1016.7
20260509060433 23 138 1.6 4.8 0.00 0.00 0.00 67 1016.7
20260509055934 23 0 0.0 8.0 0.00 0.00 0.00 68 1016.6
20260509055433 24 0 0.0 8.0 0.00 0.00 0.00 68 1016.6
20260509054934 24 0 0.0 3.2 0.00 0.00 0.00 67 1016.6
20260509054434 24 0 0.0 4.8 0.00 0.00 0.00 67 1016.6
20260509053933 24 0 0.0 4.8 0.00 0.00 0.00 67 1016.6
20260509053435 24 0 0.0 3.2 0.00 0.00 0.00 67 1016.6
20260509052935 24 0 0.0 4.8 0.00 0.00 0.00 67 1016.5
20260509052433 24 0 0.0 4.8 0.00 0.00 0.00 68 1016.5
20260509051934 24 0 0.0 3.2 0.00 0.00 0.00 67 1016.5
20260509051435 24 154 1.6 8.0 0.00 0.00 0.00 67 1016.5
20260509050934 24 0 0.0 8.0 0.00 0.00 0.00 68 1016.5
20260509050435 24 0 0.0 4.8 0.00 0.00 0.00 67 1016.5
20260509045933 24 0 0.0 4.8 0.00 0.00 0.00 68 1016.5
20260509045433 24 115 1.6 4.8 0.00 0.00 0.00 68 1016.5
20260509044934 24 135 1.6 6.4 0.00 0.00 0.00 67 1016.5
20260509044434 24 156 1.6 6.4 0.00 0.00 0.00 68 1016.4
20260509043935 23 146 1.6 4.8 0.00 0.00 0.00 68 1016.4
20260509043434 23 0 0.0 4.8 0.00 0.00 0.00 68 1016.4
20260509042933 23 0 0.0 4.8 0.00 0.00 0.00 67 1016.5
20260509042433 23 136 1.6 9.7 0.00 0.00 0.00 66 1016.5
20260509041934 24 135 1.6 9.7 0.00 0.00 0.00 66 1016.5
20260509041433 24 135 1.6 4.8 0.00 0.00 0.00 66 1016.4
20260509040933 24 134 1.6 4.8 0.00 0.00 0.00 66 1016.4
20260509040434 24 161 1.6 4.8 0.00 0.00 0.00 67 1016.4
20260509035935 24 154 1.6 6.4 0.00 0.00 0.00 67 1016.3
20260509035433 24 137 1.6 9.7 0.00 0.00 0.00 66 1016.3
20260509034933 24 149 3.2 9.7 0.00 0.00 0.00 66 1016.3
20260509034434 24 156 1.6 8.0 0.00 0.00 0.00 66 1016.4
20260509033935 24 151 1.6 8.0 0.00 0.00 0.00 66 1016.4
20260509033433 24 144 1.6 8.0 0.00 0.00 0.00 65 1016.4
20260509032934 24 143 1.6 8.0 0.00 0.00 0.00 64 1016.5
20260509032435 25 140 1.6 9.7 0.00 0.00 0.00 65 1016.5
20260509031933 25 148 1.6 9.7 0.00 0.00 0.00 65 1016.5
20260509031434 25 153 1.6 8.0 0.00 0.00 0.00 65 1016.6
20260509030933 25 140 3.2 9.7 0.00 0.00 0.00 64 1016.6
20260509030434 25 138 1.6 12.9 0.00 0.00 0.00 65 1016.6
20260509025935 25 151 1.6 12.9 0.00 0.00 0.00 65 1016.6
20260509025434 25 157 1.6 8.0 0.00 0.00 0.00 65 1016.6
20260509024933 25 144 1.6 8.0 0.00 0.00 0.00 65 1016.6
20260509024434 25 130 1.6 8.0 0.00 0.00 0.00 65 1016.7
20260509023933 25 126 1.6 8.0 0.00 0.00 0.00 64 1016.7
20260509023434 25 133 1.6 6.4 0.00 0.00 0.00 65 1016.7
20260509022933 25 155 1.6 4.8 0.00 0.00 0.00 65 1017.0
20260509022433 25 150 1.6 6.4 0.00 0.00 0.00 65 1017.0
20260509021934 25 139 1.6 6.4 0.00 0.00 0.00 64 1017.0
20260509021433 25 143 1.6 8.0 0.00 0.00 0.00 64 1017.0
20260509020933 25 134 1.6 11.3 0.00 0.00 0.00 65 1017.0
20260509020433 25 120 1.6 11.3 0.00 0.00 0.00 64 1017.0
20260509015934 25 114 1.6 8.0 0.00 0.00 0.00 65 1017.1
20260509015433 25 118 1.6 6.4 0.00 0.00 0.00 65 1017.1
20260509014933 25 161 1.6 6.4 0.00 0.00 0.00 65 1017.1
20260509014433 25 177 1.6 6.4 0.00 0.00 0.00 65 1017.1
20260509013933 25 127 1.6 8.0 0.00 0.00 0.00 65 1017.1
20260509013435 25 129 1.6 8.0 0.00 0.00 0.00 64 1017.1
20260509012933 25 146 1.6 8.0 0.00 0.00 0.00 65 1017.2
20260509012433 25 150 1.6 6.4 0.00 0.00 0.00 66 1017.2
20260509011934 25 135 1.6 6.4 0.00 0.00 0.00 67 1017.2
20260509011434 24 115 1.6 8.0 0.00 0.00 0.00 66 1017.2
20260509010935 24 120 1.6 8.0 0.00 0.00 0.00 66 1017.2